Simultaneous Nadir Overpasses (SNOs) Predictions

Prediction of SNOs between GOES-16 and FY3D Satellite Orbit:

Table of predicted SNOs for the next 14.0 days since TLE Epoch: 3/30/2024
Index Date Time (GOES-16) GOES-16 Lat,Lon FY3D Lat,Lon Distance(km) Time Diff (sec)
1 03/30/2024 07:36:56 -0.02, -75.22 0.50, -77.46 256.84 80
2 03/31/2024 07:15:45 -0.02, -75.22 -0.50, -72.98 255.02 80
3 04/01/2024 19:38:04 0.01, -75.22 -0.66, -78.34 355.08 80
4 04/02/2024 19:22:13 0.01, -75.23 0.35, -73.85 157.19 80
5 04/04/2024 07:44:21 -0.00, -75.24 0.90, -79.16 448.29 80
6 04/05/2024 07:23:11 -0.01, -75.24 -0.12, -74.68 64.24 80
7 04/07/2024 19:26:58 0.00, -75.27 -0.07, -75.55 31.80 80
8 04/08/2024 19:11:07 0.01, -75.28 0.96, -71.06 481.48 80
9 04/10/2024 07:33:16 -0.01, -75.31 0.26, -76.38 122.39 80
10 04/11/2024 07:12:05 -0.01, -75.32 -0.77, -71.89 391.00 80
11 04/12/2024 19:34:22 0.00, -75.34 -0.43, -77.25 217.21 80
